Regional Weather Roundup
Issued by NWS

Home | Current Version | Previous Version | Graphics & Text | Print | Product List | Glossary On
Versions: 1 2 3 4 5 6 7 8 9 10 11 12 13 14 15 16 17 18 19 20 21 22 23 24 25 26 27 28 29 30 31 32 33 34 35 36 37 38 39 40 41 42 43 44 45 46 47 48 49 50
000
ASUS43 KDTX 242201
RWRMI
MICHIGAN HOURLY REGIONAL WEATHER ROUNDUP
NATIONAL WEATHER SERVICE DETROIT/PONTIAC MI
600 PM EDT THU APR 24 2014

NOTE: "FAIR" INDICATES FEW OR NO CLOUDS BELOW 12,000 FEET WITH NO
SIGNIFICANT WEATHER AND/OR OBSTRUCTION TO VISIBILITY.

MIZ047>049-052>055-059>063-066>070-074>076-081>083-242300-
SOUTHEAST LOWER MICHIGAN

CITY           SKY/WX    TMP DP  RH WIND       PRES   REMARKS
ADRIAN         CLOUDY    50  21  32 SE15      30.01S
ALMA           CLOUDY    55  17  22 SE12      29.97F
ANN ARBOR      PTSUNNY   51  15  23 SE9       30.01F
BAD AXE        CLOUDY    49  16  27 E7        30.05F
CARO           PTSUNNY   55  21  27 SE12      30.02S
DETROIT CITY   MOSUNNY   53  17  24 E15       30.03F
DETROIT        PTSUNNY   53  16  23 E8        30.03F
FLINT          PTSUNNY   56  19  23 SE13      30.00F
GROSSE ILE     MOSUNNY   54  10  17 E8        30.01F
HILLSDALE      CLOUDY    53  22  30 E14       29.96F
HOWELL         CLOUDY    52  18  26 SE13      29.99S

CITY           SKY/WX    TMP DP  RH WIND       PRES   REMARKS
JACKSON        CLOUDY    51  17  26 E18G24    29.98F
LAMBERTVILLE   CLOUDY    48  27  43 E8        30.02S
LANSING        CLOUDY    53  17  24 SE16      29.97F
LAPEER         MOCLDY    53  21  28 SE7       30.00F
MASON          CLOUDY    53  20  27 SE10G20   29.98F
MONROE         PTSUNNY   48  21  34 E9        30.01F
MT. CLEMENS    PTSUNNY   51  19  28 SE14      30.02F
PONTIAC        CLOUDY    53  15  22 E13       30.00F
PORT HOPE        N/A     40  33  76 E9        30.06F WCI  34
PORT HURON     MOSUNNY   50  23  34 NE10      30.04S
TRI CITIES     PTSUNNY   56  23  27 SE13      30.00F
TROY           MOSUNNY   53  16  23 SE8       30.03F
SAGINAW HB     PTSUNNY   55  19  24 SE10G16   30.00F
YPSILANTI      PTSUNNY   54  17  23 SE15      30.02F
$$
MIZ043>046-050>051-056>058-064>065-071>073-077>080-242300-
SOUTHWEST LOWER MICHIGAN

CITY           SKY/WX    TMP DP  RH WIND       PRES   REMARKS
BATTLE CREEK   CLOUDY    55  20  25 SE21G29   29.90F
BENTON HARBOR  CLOUDY    59  25  27 SE21G32   29.82F
BIG RAPIDS     PTSUNNY   55  22  28 E23G29    29.92S
COLDWATER      CLOUDY    53  19  26 E18       29.90F
FREMONT        FAIR      57  18  21 SE20G26   29.87F
HOLLAND        CLOUDY    59  23  25 SE21G30   29.84F
GRAND RAPIDS   CLOUDY    57  26  30 E23G29    29.89F
IONIA          FAIR      54  22  27 SE22      29.93F
KALAMAZOO      LGT RAIN  55  24  30 SE12G22   29.88F
LUDINGTON      CLOUDY    57  24  28 SE16G22   29.87S
MARSHALL       CLOUDY    54  23  30 E16G23    29.93F
MOUNT PLEASANT PTSUNNY   55  21  26 E17G24    29.96F
MUSKEGON       PTSUNNY   60  22  23 E25G32    29.83F
SOUTH HAVEN    CLOUDY    60  20  20 SE17G30   29.81F
$$
MIZ016>042-242300-
NORTHERN LOWER MICHIGAN

CITY           SKY/WX    TMP DP  RH WIND       PRES   REMARKS
ALPENA         CLOUDY    43  25  49 E9        30.06F
BEAVER ISLAND  CLOUDY    45  25  46 E6        29.97F
BELLAIRE       CLOUDY    55  19  24 E14G24    29.95F
CADILLAC       CLOUDY    50  23  34 E17G25    29.92F
CHARLEVOIX     CLOUDY    55  18  23 SE12G18   29.98F
FRANKFORT      CLOUDY    43  36  78 NE9       29.92F
GAYLORD        CLOUDY    50  17  27 SE16G23   29.96F
GRAYLING       CLOUDY    50  14  24 SE17      29.98F
HARBOR SPRINGS CLOUDY    53  22  29 E10G18    29.96F
HOUGHTON LAKE  PTSUNNY   51  19  28 SE16G24   29.98F
MANISTEE       CLOUDY    54  25  32 E13       29.90F
OSCODA         CLOUDY    43  26  50 E9        30.06S
PELLSTON       CLOUDY    52  19  27 E16G29    29.99F
ROGERS CITY    CLOUDY    48  24  38 SE9       30.06S
TRAVERSE CITY  CLOUDY    47  32  56 E9        29.94F
$$
MIZ007>008-015-242300-
EASTERN UPPER MICHIGAN

CITY           SKY/WX    TMP DP  RH WIND       PRES   REMARKS
KINROSS        CLOUDY    46  19  34 SE12      30.03S
MACKINAC ISLAN CLOUDY    43  23  44 E12G21    30.02F
NEWBERRY       CLOUDY    43  29  57 SE17G25   30.01S
S. S. MARIE    CLOUDY    48  20  32 SE9       30.03F
MUNISING         N/A     49  23  36 SE7       29.95F
$$
MIZ004>006-011>014-085-242300-
CENTRAL UPPER MICHIGAN

CITY           SKY/WX    TMP DP  RH WIND       PRES   REMARKS
MANISTIQUE     CLOUDY    46  26  45 SE12G17   29.97S
ESCANABA       CLOUDY    37  32  81 SE6       29.96F WCI  33
MENOMINEE      CLOUDY    37  36  93 E13       29.89F WCI  29
SAWYER-GWINN   DRIZZLE   37  32  81 S10G18    29.95S WCI  30
$$
MIZ001>003-009>011-084-242300-
WESTERN UPPER MICHIGAN

CITY           SKY/WX    TMP DP  RH WIND       PRES   REMARKS
IRON MOUNTAIN  SNOW      33  32  96 E7        29.89S VSB 1/2 WCI  27
HOUGHTON       LGT SNOW  35  30  82 E15G23    29.93S WCI  25
COPPER HARBOR    N/A     41  27  57 S10G16    29.97R
$$

ABBREVIATIONS USED IN REMARKS
   TC - TEMPERATURE IN CELSIUS
  WCI - WIND CHILL INDEX
   HX - HEAT INDEX
  VSB - VISIBILITY




USA.gov is the U.S. government's official web portal to all federal, state and local government web resources and services.